Content
SEND FEEDBACK

Daily
Averages
Monthly
Summary
Canada

QUEBEC CITY, QUEBEC


Home > North America > Canada > Quebec
Elevation: 239 feet     Latitude: 46 48N     Longitude: 071 23W

WEATHER
 
SELECT A DAY
Number of Records: 191,801;   Date Range: 6/30/96 - 7/10/14
 
SHARE

PRINT THIS DATA

[ ← Previous Day ]
WEATHER ALMANAC - JANUARY 19, 2013
[ Next Day → ]
[ °C ]   °F
Weather ElementAverageHighLow
Temperature15 °F22 °F (7:00 pm)3.2 °F (1:00 am)
Dewpoint7.1 °F19 °F (7:00 pm)-4 °F (1:00 am)
Humidity80.5 %93 % (5:00 pm)57 % (9:00 am)
Wind Speed7.7 mph23 mph (11:00 pm)
Wind Gust29.9 mph (10:00 pm)
Weather ElementAverage
Visibility3.1 mi
Wind DirectionENE (56.4 °)

Weather ElementTotal
Precipitation---
Heating Degree Days52.4 (Base 65)
Averaged from 40 records on January 19, 2013
WEATHER CONDITIONS BREAKOUT
WIND DIRECTION BREAKOUT
WEATHER BY HOUR - JANUARY 19, 2013
[ °C ]   °F
Local TimeTemperatureDewpointHumidityBarometerVisibilityWind DirectionWind SpeedGust SpeedPrecipitationEventsConditions
1:00 AM4.0 °F0.0 °F73 %30.18 inNNE (20°)2.3 mph
1:00 AM3.2 °F-4.0 °F72 %30.18 in5.0 miNNE (20°)4.6 mphSnowLight Snow
2:00 AM3.2 °F-4.0 °F72 %30.17 in4.0 miNNE (20°)2.3 mphSnowLight Snow
3:00 AM5.0 °F-2.2 °F72 %30.14 in4.0 miNorth (360°)5.8 mphSnowLight Snow
4:00 AM5.0 °F-2.2 °F72 %30.10 in3.0 miNorth (10°)3.5 mphSnowLight Snow
4:00 AM5.0 °F2.0 °F81 %30.10 inCalm
5:00 AM5.0 °F-0.4 °F78 %30.07 in3.0 miNNE (30°)2.3 mphSnowLight Snow
6:00 AM6.8 °F-0.4 °F72 %30.05 in3.0 miNNE (20°)5.8 mphSnowLight Snow
7:00 AM8.0 °F5.0 °F81 %30.02 inNE (40°)1.2 mph
7:00 AM6.8 °F1.4 °F79 %30.03 in2.0 miNE (40°)3.5 mphSnowLight Snow
8:00 AM8.6 °F3.2 °F79 %30.01 in1.2 miNE (40°)5.8 mphSnowLight Snow
9:00 AM10.4 °F-2.2 °F57 %30.00 in1.0 miNNE (20°)4.6 mphSnowLight Snow
10:00 AM14.0 °F11.0 °F84 %29.98 inNNE (30°)2.3 mph
10:00 AM14.0 °F8.6 °F79 %29.98 in1.5 miNNE (20°)4.6 mphSnowLight Snow
10:23 AM14.0 °F0.0 °F3.0 miNNE (20°)4.6 mphSnowLight Snow
11:00 AM15.8 °F10.4 °F79 %29.95 in5.0 miNNE (30°)4.6 mphSnowLight Snow
11:53 AM17.6 °F0.0 °F1.5 miNE (40°)4.6 mphSnowLight Snow
12:00 PM17.6 °F12.2 °F79 %29.92 in1.0 miNNE (30°)4.6 mphSnowLight Snow
1:00 PM19.0 °F16.0 °F83 %29.89 inENE (70°)3.5 mph
1:00 PM17.6 °F14.0 °F86 %29.90 in1.5 miNE (50°)3.5 mphSnowLight Snow
2:00 PM19.4 °F15.8 °F86 %29.90 in1.5 miNE (40°)4.6 mphSnowLight Snow
3:00 PM19.4 °F15.8 °F86 %29.89 in1.8 miENE (60°)4.6 mphSnowLight Snow
3:49 PM19.4 °F0.0 °F4.0 miNE (50°)4.6 mphSnowLight Snow
4:00 PM20.0 °F18.0 °F89 %29.90 inENE (60°)4.6 mph
4:00 PM19.4 °F15.8 °F86 %29.91 in1.8 miENE (60°)5.8 mphSnowLight Snow
5:00 PM19.4 °F17.6 °F93 %29.91 in1.5 miENE (70°)6.9 mphSnowLight Snow
5:30 PM19.4 °F0.0 °F3.0 miENE (70°)6.9 mphSnowLight Snow
5:46 PM19.4 °F0.0 °F1.8 miENE (60°)10.4 mphSnowLight Snow
6:00 PM19.4 °F17.6 °F93 %29.92 in3.0 miENE (60°)10.4 mphSnowLight Snow
7:00 PM21.2 °F17.6 °F86 %29.94 in12.0 miENE (60°)13.8 mph19.6 mphSnowLight Snow
7:00 PM22.0 °F19.0 °F85 %29.93 inENE (70°)9.2 mph
7:23 PM21.2 °F0.0 °F5.0 miENE (70°)15.0 mph20.7 mphSnowLight Snow
7:41 PM21.2 °F0.0 °F1.2 miENE (60°)18.4 mph24.2 mphSnowLight Snow
8:00 PM21.2 °F17.6 °F86 %29.93 in2.0 miENE (70°)11.5 mph19.6 mphSnowLight Snow
8:26 PM19.4 °F0.0 °F4.0 miENE (70°)16.1 mph28.8 mphSnowLight Snow
9:00 PM19.4 °F15.8 °F86 %29.91 in6.0 miENE (70°)16.1 mph27.6 mphSnowLight Snow
10:00 PM21.0 °F17.0 °F76 %29.89 inEast (80°)11.5 mph
10:00 PM19.4 °F14.0 °F80 %29.89 in6.0 miENE (70°)19.6 mph29.9 mphSnowLight Snow
10:31 PM19.4 °F0.0 °F2.0 miENE (70°)19.6 mph27.6 mphSnowLight Snow
11:00 PM19.4 °F15.8 °F86 %29.86 in2.0 miENE (70°)23.0 mph29.9 mphSnowLight Snow
Hourly data recorded from CYQB, located miles away from Quebec City, Quebec







STORIES FROM OUR PARTNERS